Location: Bay Shore Mobile Home Park
(38.5762°N, 75.0841°W)
Time: 06:06:40
(UTC+00:00)

Daily predictions for brighter satellites

Satellite Brightness Start Highest point End
(mag) Time Altitude Azimuth Time Altitude Azimuth Time Altitude Azimuth
Cosmos 2016 Rocket 4.3 22:07:51 10° S 22:14:08 80° W 22:20:30 10° N
IGS 5A 3.4 22:10:49 10° SSE 22:14:48 90° WNW 22:18:48 10° NNW
Tsikada Rocket 4.1 22:09:15 10° N 22:15:37 62° E 22:21:51 10° SSE
Cosmos 1025 Rocket 4.1 22:12:39 10° NNW 22:16:50 51° W 22:20:57 10° SSW
SAR-Lupe-4 3.7 22:15:06 10° SSE 22:18:34 49° ENE 22:22:02 10° N
RESURS DK-1 4.1 22:16:34 10° NNE 22:18:35 13° NE 22:20:37 10° E
Cosmos 1763 Rocket 4.4 22:15:05 10° N 22:19:21 25° ENE 22:23:32 10° ESE
Cosmos 1140 Rocket 3.6 22:15:37 10° SSW 22:20:48 85° WNW 22:26:00 10° NNE
SL-16 R/B 3.6 22:16:32 10° N 22:22:30 48° WNW 22:28:26 10° SW
Cosmos 1269 Rocket 4.3 22:17:23 10° SSW 22:22:37 72° WNW 22:27:53 10° NNE
BREEZE-M DEB (TANK) 3.3 22:24:37 10° W 22:26:36 34° NNW 22:30:10 10° NE
Thor Agena Rocket 3.9 22:21:51 10° S 22:27:06 75° WSW 22:32:23 10° NNW
Cosmos 1833 Rocket 2.6 22:22:55 10° NNW 22:28:35 72° ENE 22:34:11 10° SSE
SAR-Lupe-3 3.6 22:26:18 10° NNE 22:28:57 77° ESE 22:31:34 10° S
SJ-12 3.8 22:27:10 10° SSE 22:30:53 56° ENE 22:34:37 10° N
CZ-4C R/B 4.4 22:30:25 10° NW 22:32:01 11° NNW 22:33:42 10° N
YAOGAN 1 3.9 22:30:53 10° ESE 22:33:42 17° ENE 22:36:30 10° NNE
Cosmos 2251 Rocket 4.2 22:30:49 10° SSE 22:35:28 33° E 22:40:10 10° NE
CZ-2D R/B 4.4 22:35:13 10° SE 22:38:36 26° ENE 22:42:04 10° NNE
Cosmos 1812 2.6 22:41:33 10° SSE 22:44:13 34° E 22:46:32 12° NNE
IRS-P3 4.1 22:39:05 10° SSE 22:44:20 64° ENE 22:49:36 10° N
NOSS 3 (A) 4.5 22:43:41 10° SW 22:45:25 36° WNW 22:46:18 19° N
SJ 16-02 2.5 22:42:20 10° SSE 22:45:42 23° E 22:47:35 17° ENE
Okean 2 Rocket 4.2 22:44:55 10° SE 22:48:20 22° E 22:50:29 16° NE
Cosmos 2058 3.7 22:45:47 10° NNE 22:49:08 25° ENE 22:52:27 10° SE
Cosmos 1400 Rocket 3.7 22:51:06 10° SSE 22:54:13 24° E 22:55:01 23° ENE
OAO 2 Rocket 3.7 22:49:21 10° WSW 22:54:16 57° S 22:57:57 18° ESE
Cosmos 1869 3.0 22:51:54 10° S 22:55:26 80° W 22:58:57 10° N
ARIANE 5 R/B 2.9 22:51:24 10° S 22:56:20 67° WSW 23:01:18 10° NNW
Tiangong 0.9 22:55:50 10° WSW 22:57:34 14° SW 22:59:17 10° S
Cosmos 1536 Rocket 4.5 22:54:04 10° NNE 22:57:46 25° ENE 23:01:25 10° SE
Cosmos 44 Rocket 3.2 22:54:07 10° SSW 22:58:49 81° ESE 23:03:04 14° NNE
SMAP 4.2 22:55:32 10° S 22:59:59 46° W 23:04:29 10° NNW
Timation 2 Rocket 4.3 22:54:11 10° SSW 23:01:03 83° WNW 23:07:57 10° NNE
Cosmos 468 Rocket 4.4 23:04:42 10° N 23:09:30 36° ENE 23:12:48 18° ESE
Cosmos 1190 Rocket 4.0 23:06:45 10° S 23:11:57 62° ESE 23:16:32 14° NNE
IRAS Rocket 4.2 23:08:42 10° SSE 23:14:09 58° ENE 23:19:35 10° N
SL-4 R/B 4.4 23:11:37 10° W 23:14:11 19° SW 23:16:50 10° S
Cosmos 676 Rocket 4.5 23:09:44 10° SSE 23:14:36 38° ESE 23:16:32 28° ENE
SL-19 R/B 4.2 23:10:55 10° SE 23:15:59 52° ENE 23:21:01 10° N
SPOT 1/Viking Rocket 3.4 23:16:57 10° SSE 23:22:06 83° ENE 23:27:19 10° N
Cosmos 1954 Rocket 3.9 23:20:40 10° S 23:25:53 67° ESE 23:29:11 23° NNE
ATLAS 2AS CENTAUR R/B 4.4 23:24:03 10° N 23:27:18 14° NNE 23:27:19 14° NNE
ISS -1.9 23:24:48 10° W 23:27:30 22° NNW 23:28:15 21° N
DELTA 2 R/B (1) 4.5 23:23:55 10° SSW 23:28:46 32° SSE 23:29:54 29° SE
Cosmos 1464 Rocket 3.9 23:23:16 10° S 23:29:35 85° E 23:35:52 10° N
Cosmos 371 Rocket 3.3 23:25:26 10° S 23:30:05 55° ESE 23:31:09 45° ENE
Cosmos 1943 Rocket 3.0 23:24:41 10° SW 23:30:07 49° WNW 23:35:33 10° NNE
Cosmos 2278 Rocket 2.9 23:25:00 10° SW 23:30:29 52° WNW 23:36:00 10° NNE
Cosmos 2151 Rocket 3.5 23:26:06 10° S 23:30:34 90° WNW 23:35:04 10° N
Cosmos 2082 Rocket 2.3 23:25:53 10° NNW 23:31:19 50° ENE 23:33:06 37° ESE
Aureole 3 Rocket 4.0 23:28:45 10° SSW 23:31:38 33° W 23:34:26 10° NNW
OAO 3 Rocket 3.4 23:27:40 10° WSW 23:32:12 53° S 23:33:15 43° SE
Cosmos 304 Rocket 3.6 23:31:33 10° S 23:36:13 67° ESE 23:37:16 50° NE
ATLAS 5 CENTAUR R/B 3.1 23:32:58 10° NW 23:37:34 45° WSW 23:43:10 10° S
Sich 1 Rocket 3.5 23:34:25 10° S 23:38:53 71° E 23:40:00 49° NNE
MOS 1 Rocket 4.4 23:35:16 10° SSW 23:39:15 40° W 23:43:23 10° NNW
COSMO-SKYMED 1 2.9 23:36:04 11° N 23:39:54 59° WNW 23:43:56 10° SSW
USA 215 4.1 23:33:42 10° SSE 23:39:59 50° SW 23:46:19 10° NW
Spot 4 Rocket 4.1 23:35:56 10° S 23:41:00 78° WSW 23:46:08 10° NNW
Cosmos 2034 Rocket 3.8 23:35:26 10° S 23:41:33 69° E 23:47:45 10° NNE
Cosmos 2369 Rocket 4.3 23:37:58 10° SSE 23:38:10 11° SSE 23:38:10 11° SSE
Helios 1A Rocket 3.8 23:43:03 22° NNW 23:44:42 38° WNW 23:47:51 10° SW
Okean 1 Rocket 2.9 23:41:36 10° S 23:46:02 84° E 23:46:31 70° NNE
Timation 1 Rocket 4.4 23:40:25 10° NNW 23:46:22 76° WSW 23:52:19 10° SSE
